TimeEDT,TemperatureF,Dew PointF,Humidity,Sea Level PressureIn,VisibilityMPH,Wind Direction,Wind SpeedMPH,Gust SpeedMPH,PrecipitationIn,Events,Conditions,WindDirDegrees,DateUTC
12:54 AM,46.9,43.0,86,30.09,10.0,Calm,Calm,-,0.03,Rain,Light Rain,0,2012-10-08 04:54:00
1:04 AM,46.4,42.8,87,30.08,10.0,Calm,Calm,-,0.00,Rain,Light Rain,0,2012-10-08 05:04:00
1:25 AM,46.4,44.6,93,30.09,10.0,Calm,Calm,-,0.00,,Overcast,0,2012-10-08 05:25:00
1:40 AM,46.4,42.8,87,30.09,10.0,Calm,Calm,-,0.00,,Overcast,0,2012-10-08 05:40:00
1:54 AM,46.9,44.1,90,30.10,10.0,Calm,Calm,-,0.00,,Overcast,0,2012-10-08 05:54:00
2:04 AM,46.4,44.6,93,30.09,10.0,ENE,3.5,-,N/A,,Overcast,60,2012-10-08 06:04:00
2:27 AM,46.4,42.8,87,30.08,10.0,Calm,Calm,-,N/A,,Overcast,0,2012-10-08 06:27:00
2:44 AM,46.4,42.8,87,30.08,10.0,Calm,Calm,-,N/A,,Overcast,0,2012-10-08 06:44:00
2:54 AM,46.0,43.0,89,30.09,10.0,Calm,Calm,-,N/A,,Overcast,0,2012-10-08 06:54:00
3:54 AM,46.9,43.0,86,30.11,10.0,Calm,Calm,-,N/A,,Overcast,0,2012-10-08 07:54:00
4:11 AM,46.4,44.6,93,30.10,7.0,Calm,Calm,-,0.00,Rain,Light Rain,0,2012-10-08 08:11:00
4:54 AM,46.9,41.0,80,30.12,10.0,Calm,Calm,-,0.00,,Overcast,0,2012-10-08 08:54:00
5:44 AM,46.4,42.8,87,30.13,10.0,Calm,Calm,-,0.00,,Overcast,0,2012-10-08 09:44:00
5:54 AM,46.0,42.1,86,30.14,10.0,Calm,Calm,-,0.00,,Overcast,0,2012-10-08 09:54:00
6:14 AM,46.4,42.8,87,30.12,8.0,Calm,Calm,-,0.01,,Overcast,0,2012-10-08 10:14:00
6:54 AM,46.0,42.1,86,30.16,10.0,Calm,Calm,-,0.01,,Overcast,0,2012-10-08 10:54:00
7:54 AM,46.0,43.0,89,30.20,10.0,Calm,Calm,-,N/A,,Overcast,0,2012-10-08 11:54:00
8:33 AM,46.4,42.8,87,30.20,10.0,Calm,Calm,-,N/A,,Overcast,0,2012-10-08 12:33:00
8:52 AM,46.4,44.6,93,30.21,10.0,Calm,Calm,-,N/A,,Overcast,0,2012-10-08 12:52:00
8:54 AM,46.9,44.1,90,30.23,10.0,Calm,Calm,-,N/A,,Overcast,0,2012-10-08 12:54:00
9:02 AM,46.4,42.8,87,30.21,10.0,SE,3.5,-,N/A,,Overcast,130,2012-10-08 13:02:00
9:08 AM,46.4,42.8,87,30.21,10.0,Calm,Calm,-,N/A,,Overcast,0,2012-10-08 13:08:00
9:29 AM,48.2,42.8,82,30.21,10.0,Calm,Calm,-,N/A,,Overcast,0,2012-10-08 13:29:00
9:54 AM,48.0,42.1,80,30.23,10.0,Calm,Calm,-,N/A,,Overcast,0,2012-10-08 13:54:00
10:54 AM,48.9,39.9,71,30.25,10.0,Calm,Calm,-,N/A,,Overcast,0,2012-10-08 14:54:00
11:17 AM,50.0,41.0,71,30.24,10.0,Calm,Calm,-,N/A,,Overcast,0,2012-10-08 15:17:00
11:54 AM,51.1,39.9,66,30.26,10.0,Calm,Calm,-,N/A,,Mostly Cloudy,0,2012-10-08 15:54:00
12:54 PM,53.1,36.0,52,30.25,10.0,Calm,Calm,-,N/A,,Mostly Cloudy,0,2012-10-08 16:54:00
1:54 PM,55.9,35.1,45,30.24,10.0,Variable,3.5,-,N/A,,Mostly Cloudy,0,2012-10-08 17:54:00
2:54 PM,55.9,33.1,42,30.25,10.0,WSW,5.8,-,N/A,,Mostly Cloudy,250,2012-10-08 18:54:00
3:54 PM,55.0,30.9,40,30.24,10.0,Calm,Calm,-,N/A,,Clear,0,2012-10-08 19:54:00
4:54 PM,54.0,32.0,43,30.25,10.0,SSW,3.5,-,N/A,,Clear,210,2012-10-08 20:54:00
5:54 PM,52.0,37.0,57,30.27,10.0,Calm,Calm,-,N/A,,Partly Cloudy,0,2012-10-08 21:54:00
6:54 PM,48.9,39.9,71,30.29,10.0,Calm,Calm,-,N/A,,Clear,0,2012-10-08 22:54:00
7:54 PM,46.9,39.9,77,30.31,10.0,Calm,Calm,-,N/A,,Scattered Clouds,0,2012-10-08 23:54:00
8:54 PM,45.0,39.9,82,30.31,10.0,Calm,Calm,-,N/A,,Scattered Clouds,0,2012-10-09 00:54:00
10:54 PM,44.1,39.9,85,30.33,10.0,Calm,Calm,-,N/A,,Overcast,0,2012-10-09 02:54:00
11:54 PM,43.0,39.0,86,30.33,10.0,Calm,Calm,-,N/A,,Mostly Cloudy,0,2012-10-09 03:54:00